ASTRA 1L 1 31306U 07016A 21061.90604861 .00000111 00000-0 00000-0 0 9994 2 31306 0.0999 294.2547 0004693 28.8602 183.1230 1.00270955 25669 GALAXY 17 (G-17) 1 31307U 07016B 21062.15384610 -.00000183 00000-0 00000+0 0 9999 2 31307 0.0023 238.9576 0003382 104.2424 142.3125 1.00271125 50703 ARIANE 5 R/B 1 31308U 07016C 21061.35918778 .00000492 00000-0 17313-3 0 9990 2 31308 5.6546 287.2589 7057760 333.3644 3.3959 2.56112789122591